Welcome to the New NWS' Forecast!
Most changes are behind the scenes, but click here for differences you might notice.
Latest weather observations around

Russellville, Russellville Regional Airport (KRUE)

Using English Units (Switch to International System of Units)
Date/ Time (CDT) Wind (mph) Vis. (mi) Weather Sky Cond. Temp (°F) Rel. Humidity Wind Chill (°F) Heat Index (°F) Pressure Precip. (in)
Air Dwpt 6 hour Altimeter (inHg) Sea level (inHg) 1 hr 3 hr 6 hr
Max Min
May 24 21:53 Calm 10 Clear CLR 54 52     93%     29.7 29.69   0  
May 24 20:53 Calm 10 Partly Cloudy FEW070 SCT100 56 52     87%     29.69 29.67 0    
May 24 19:53   10 Cloudy BKN060 OVC075 66 46     48%     29.69 29.67      
May 24 18:53 WNW 10 10 Mostly Cloudy BKN080 66 46     48%     29.66 29.65      
May 24 17:53 W 17 10 Clear CLR 68 46     45%     29.65 29.64      
May 24 16:53 W 17 10 Mostly Cloudy BKN055 BKN090 69 45     42%     29.66 29.64      
May 24 15:53 WNW 15 10 Cloudy FEW070 OVC090 68 45     43%     29.66 29.65      
May 24 14:53 WNW 15 10 Cloudy OVC090 67 45     45%     29.67 29.65      
May 24 13:53 W 16 10 Mostly Cloudy SCT060 BKN080 68 45     43%     29.66 29.65      
May 24 12:53 WNW 14 10 Mostly Cloudy BKN080 67 45     45%     29.67 29.65      
May 24 11:53 WNW 13 10 Mostly Cloudy FEW036 FEW050 BKN090 65 48     54%     29.68 29.66      
May 24 10:53 W 13 10 Partly Cloudy FEW026 SCT048 63 50     63%     29.68 29.67      
May 24 09:53 WNW 10 10 Partly Cloudy FEW028 SCT037 SCT046 62 50     65%     29.69 29.67      
May 24 08:53 NW 9 10 Partly Cloudy SCT090 60 50     69%     29.69 29.67      
May 24 07:53 WNW 11 10 Mostly Clear FEW090 58 50     75%     29.69 29.67      
May 24 06:53 WNW 6 10 Clear CLR 55 50     83%     29.68 29.66      
May 24 05:53 W 6 10 Clear CLR 54 51     90%     29.67 29.65      
May 24 04:53 WSW 3 10 Clear CLR 56 52     87%     29.67 29.65      
May 24 03:53 WNW 8 10 Clear CLR 58 54     87%     29.69 29.67      
May 24 02:53 WNW 7 10 Clear CLR 59 55     87%     29.7 29.68      
May 24 01:53 W 5 10 Clear CLR 59 55     87%     29.71 29.69      
May 24 00:53 NW 3 10 Clear CLR 61 56     83%     29.73 29.71     0
May 23 23:53 WSW 5 10 Clear CLR 61 56     83%     29.75 29.73      
May 23 22:53 WNW 6 10 Clear CLR 63 56     78%     29.76 29.74      
May 23 21:53 NW 6 10 Cloudy OVC085 64 55     73%     29.75 29.73   0  
May 23 20:53 NNW 7 10 Cloudy BKN070 OVC090 65 56     73%     29.74 29.72      
May 23 19:53 NNW 8 10 Partly Cloudy SCT060 SCT110 65 58     78%     29.74 29.72 0    
May 23 18:53 N 8 7 Light Rain FEW036 SCT047 OVC080 65 59     81%     29.73 29.71 0   0
May 23 17:53 WNW 8 10 Mostly Clear FEW044 FEW090 71 57     61%   71 29.72 29.7 0    
May 23 16:53   10 Mostly Clear FEW047 74 56     53%   74 29.73 29.71      
May 23 15:53 W 10 10 Clear CLR 75 55     50%   75 29.73 29.71      
May 23 14:53 W 13 10 Clear CLR 75 55     50%   75 29.75 29.73      
May 23 13:53 W 14 10 Mostly Clear FEW045 76 56     50%   76 29.76 29.74      
May 23 12:53 WNW 10 10 Clear CLR 74 56     53%   74 29.78 29.76      
May 23 11:53 W 13 10 Mostly Clear FEW033 74 58     57%   74 29.8 29.78      
May 23 10:53 NW 10 10 Mostly Clear FEW026 72 58     61%   72 29.81 29.79      
May 23 09:53 NW 9 10 Clear CLR 70 58     66%     29.82 29.8      
May 23 08:53 NW 7 10 Clear CLR 67 58     73%     29.83 29.81      
May 23 07:53 Calm 10 Mostly Clear FEW120 62 57     84%     29.84 29.82      
May 23 06:53 Calm 10 Mostly Cloudy BKN110 59 56     90%     29.83 29.81      
May 23 05:53 W 3 10 Cloudy OVC100 59 55     87%     29.84 29.82      
May 23 04:53 NNW 5 10 Cloudy OVC100 60 55     83%     29.84 29.82      
May 23 03:53 E 3 10 Mostly Cloudy BKN100 58 55     90%     29.84 29.82      
May 23 02:53 Calm 10 Clear CLR 60 56     86%     29.86 29.84      
May 23 01:53 Calm 10 Clear CLR 60 55     83%     29.88 29.86      
May 23 00:53 Calm 10 Clear CLR 60 55     83%     29.9 29.88      
May 22 23:53 ESE 3 10 Partly Cloudy SCT090 63 54     72%     29.91 29.89      
May 22 22:53 Calm 10 Cloudy OVC090 63 53     70%     29.94 29.92      
May 22 21:53 Calm 10 Cloudy OVC080 65 54     68%     29.94 29.92      
May 22 20:53 Calm 10 Cloudy OVC095 66 54     65%     29.94 29.92      
May 22 19:53 3 10 Cloudy OVC080 69 52     54%     29.95 29.93      
May 22 18:53 SE 6 10 Clear CLR 72 53     51%   71 29.94 29.92      
May 22 17:53 3 10 Clear CLR 76 50     40%   75 29.95 29.93      
May 22 16:53 E 8 10 Clear CLR 76 49     39%   75 29.96 29.95      
May 22 15:53 3 10 Clear CLR 76 48     37%   75 29.99 29.97      
May 22 14:53 7 10 Clear CLR 75 47     37%   74 30.01 29.99      
May 22 13:53 ESE 9 10 Clear CLR 75 50     41%   74 30.04 30.02      
May 22 12:53 3 10 Clear CLR 72 49     44%   71 30.08 30.06      
May 22 11:53 3 10 Clear CLR 72 49     44%   71 30.09 30.07      
May 22 10:53 E 9 10 Clear CLR 69 50     51%     30.12 30.11      
May 22 09:53 5 10 Clear CLR 66 52     61%     30.14 30.12      
May 22 08:53 E 3 10 Clear CLR 62 53     72%     30.15 30.13      
May 22 07:53 Calm 10 Clear CLR 58 55     90%     30.15 30.14      
May 22 06:53 Calm 10 Clear CLR 55 54     96%     30.16 30.14      
May 22 05:53 Calm 10 Clear CLR 55 53     93%     30.14 30.12      
May 22 04:53 Calm 10 Clear CLR 56 54     93%     30.13 30.11      
May 22 03:53 Calm 10 Clear CLR 55 54     96%     30.13 30.11      
May 22 02:53 Calm 10 Clear CLR 56 54     93%     30.12 30.1      
May 22 01:53 Calm 10 Clear CLR 57 54     89%     30.12 30.1      
May 22 00:53 Calm 10 Clear CLR 56 54     93%     30.13 30.11      
May 21 23:53 Calm 10 Clear CLR 57 54     89%     30.13 30.12      
May 21 22:53 Calm 10 Clear CLR 58 54     87%     30.15 30.14      
May 21 21:53 Calm 10 Clear CLR 60 53     78%     30.13 30.11      
May 21 20:53 Calm 10 Clear CLR 63 56     78%     30.12 30.1      
May 21 19:53 NNE 5 10 Clear CLR 70 48     46%     30.1 30.08      
May 21 18:53 N 7 10 Clear CLR 75 46     36%   74 30.09 30.07      
May 21 17:53 WNW 9 10 Clear CLR 77 44     31%   76 30.1 30.08      
May 21 16:53 N 7 10 Clear CLR 78 45     31%   77 30.07 30.05      
May 21 15:53 NNE 9 10 Clear CLR 77 44     31%   76 30.09 30.07      
May 21 14:53 N 11 10 Clear CLR 77 45     32%   76 30.12 30.1      
May 21 13:53 NW 10 10 Clear CLR 77 44     31%   76 30.13 30.11      
May 21 12:53 WNW 9 10 Clear CLR 73 48     41%   72 30.14 30.12      
May 21 11:53 WNW 9 10 Clear CLR 71 51     49%   70 30.15 30.13      
May 21 10:53 W 10 10 Clear CLR 70 51     51%     30.15 30.13      
May 21 09:53 WNW 13 10 Clear CLR 67 49     52%     30.15 30.13      
May 21 08:53 NW 5 10 Clear CLR 65 53     65%     30.14 30.12      
May 21 07:53 NNW 3 10 Clear CLR 61 56     83%     30.13 30.11      
May 21 05:53 Calm 10 Clear CLR 55 54     96%     30.1 30.09      
May 21 05:33 Calm 10 Clear CLR 55 55     100%     30.1        
May 21 05:23 Calm 2 Fog/Mist CLR 57 55     93%     30.1        
May 21 04:53 Calm 10 Clear CLR 58 57     97%     30.1 30.08      
May 21 03:53 NW 3 10 Clear CLR 60 58     93%     30.07 30.05      
May 21 02:53 WNW 3 10 Clear CLR 62 60     93%     30.06 30.04      
May 21 01:53 NW 9 10 Clear CLR 63 61     93%     30.04 30.02      
May 21 00:53 NW 8 10 Clear CLR 64 61     90%     30.04 30.02      
May 20 23:53 NW 7 10 Clear CLR 65 61     87%     30.04 30.02      
May 20 22:53 WNW 6 10 Mostly Clear FEW070 67 62     84%     30.02 30      
May 20 21:53 WNW 10 10 Mostly Cloudy SCT047 BKN070 68 63     84%     29.99 29.97      
May 20 20:53 WNW 10 10 Cloudy SCT050 OVC075 69 64     84%     29.96 29.94      
May 20 19:53 W 11 10 Cloudy FEW023 BKN041 OVC055 71 66     84%   72 29.95 29.93      
May 20 19:42 W 9 10 Cloudy FEW017 BKN039 OVC050 71 67     87%   72 29.95        
May 20 18:53 NW 6 10 Cloudy BKN026 OVC036 73 69     87%   74 29.92 29.91 0   0
May 20 17:53 SE 3 10 Partly Cloudy FEW031 SCT070 77 66     69%   78 29.9 29.88      
May 20 17:08 Calm 10 Cloudy FEW026 SCT032 OVC060 78 66     67%   79 29.88        
May 20 16:53 S 3 10 Cloudy OVC028 76 66     71%   77 29.89 29.87      
May 20 16:31 SW 5 10 Mostly Cloudy BKN027 75 65     71%   76 29.89        
May 20 15:53 W 5 10 Mostly Clear FEW023 77 66     69%   78 29.89 29.87      
May 20 15:27 6 10 Mostly Cloudy SCT023 BKN034 75 65     71%   76 29.91        
May 20 14:53 6 10 Mostly Cloudy BKN023 74 65     74%   74 29.91 29.9      
May 20 14:36 SSW 7 10 Mostly Cloudy SCT022 SCT028 BKN033 74 65     74%   74 29.92        
May 20 13:53 5 10 Cloudy SCT016 OVC024 72 65     79%   73 29.94 29.92      
May 20 13:02 6 10 Cloudy SCT015 OVC028 71 64     79%   72 29.94        
May 20 12:19 5 10 Mostly Cloudy BKN010 BKN015 69 64     84%     29.96        
May 20 11:53 5 10 Cloudy OVC007 67 64     90%     29.96 29.94      
May 20 10:53 7 10 Cloudy BKN006 OVC010 66 63     90%     29.93 29.91 0    
May 20 10:14 7 10 Cloudy BKN006 OVC110 65 63     93%     29.93   0    
May 20 09:37 E 11 7 Light Rain SCT006 OVC110 64 63     96%     29.93   0    
May 20 08:53 7 7 Rain BKN006 BKN075 OVC095 64 63     96%     29.97 29.95      
May 20 08:43 6 10 Light Rain OVC007 64 63     96%     29.97        
May 20 08:22 ESE 6 10 Light Rain BKN005 OVC110 64 63     96%     29.96        
May 20 08:02 ESE 5 10 Light Rain SCT005 BKN100 BKN120 64 63     96%     29.95        
May 20 07:53 3 10 Light Rain BKN110 64 63     96%     29.95 29.93 0    
May 20 07:45 SE 6 10 Light Rain FEW080 OVC100 64 63     96%     29.94   0    
May 20 07:30 SE 5 10 Light Rain FEW065 BKN090 OVC110 64 63     96%     29.95   0    
May 20 07:15 Calm 6 Light Rain and Fog/Mist SCT050 BKN070 OVC085 64 63     96%     29.95   0    
May 20 07:07 Calm 2 Rain and Fog/Mist BKN050 BKN065 OVC095 64 63     96%     29.96   0    
May 20 06:56 W 3 1.75 Heavy Rain and Fog/Mist SCT050 BKN075 OVC090 64 63     96%     29.96   0    
May 20 06:53 WSW 3 3 Clear   64 63     96%     29.96 29.94      
May 20 06:25 Calm 3 Heavy Rain and Fog/Mist BKN041 OVC070 63 62     97%     29.94        
May 20 06:21 E 6 2 Heavy Rain and Fog/Mist OVC041 63 62     97%     29.93        
May 20 05:53 Calm 1.25 Thunderstorms and Heavy Rain and Fog/Mist OVC041 64 63     96%     29.94 29.92 0    
May 20 05:51 Calm 1.25 Thunderstorms and Heavy Rain and Fog/Mist BKN041 OVC050 64 63     94%     29.94   0    
May 20 05:34 NW 3 2.5 Heavy Rain and Fog/Mist BKN043 OVC050 64 62     93%     29.94   0    
May 20 05:14 N 5 6 Rain and Fog/Mist BKN045 OVC060 64 62     93%     29.92   0    
May 20 05:07 N 7 7 Rain BKN047 OVC060 64 62     93%     29.92   0    
May 20 04:53 N 6 7 Light Rain SCT039 BKN060 OVC070 64 62     93%     29.91 29.88      
May 20 04:40 N 7 3 Heavy Rain and Fog/Mist BKN031 BKN044 OVC070 64 62     93%     29.91        
May 20 04:29 NNW 11 2 Thunderstorms and Heavy Rain and Fog/Mist BKN025 OVC044 64 62     93%     29.93        
May 20 04:15   1.75 Thunderstorms and Heavy Rain and Fog/Mist FEW021 OVC041 64 62     93%     29.9        
May 20 03:40 N 9 5 Thunderstorms and Heavy Rain and Fog/Mist OVC037 65 62     90%     29.91   0    
May 20 03:27 NNE 10 10 Light Rain OVC033 66 62     87%     29.91   0    
May 20 02:56   10 Cloudy SCT020 BKN031 OVC035 67 63     87%     29.9        
May 20 02:53 NW 9 10 Cloudy FEW017 SCT022 OVC029 67 63     87%     29.9        
May 20 02:44   10 Cloudy FEW019 BKN029 OVC090 68 63     84%     29.89        
May 20 02:37   10 Cloudy BKN019 OVC100 69 63     81%     29.88        
May 20 02:28   10 Thunderstorms FEW019 OVC100 70 67     90%     29.87        
May 20 01:53 Calm 10 Partly Cloudy SCT041 SCT065 72 70     93%   73 29.83 29.8 0    
May 20 01:01 3 10 Mostly Cloudy FEW075 BKN110 73 70     90%   74 29.84        
May 20 00:53 5 10 Mostly Cloudy FEW090 BKN110 73 70     90%   74 29.84 29.82     0
May 19 23:53 3 10 Mostly Clear FEW090 73 70     90%   74 29.85 29.82      
May 19 22:53 6 10 Mostly Cloudy BKN110 72 70     93%   73 29.87 29.84 0    
May 19 22:23 3 10 Mostly Cloudy FEW043 BKN110 72 69     91%   73 29.87   0    
May 19 22:04 Calm 10 Mostly Cloudy FEW012 SCT036 BKN047 73 70     90%   74 29.87   0    
May 19 21:53 E 5 10 Thunderstorms FEW012 SCT035 OVC047 72 69     91%   73 29.86 29.83 0 0  
May 19 21:49 E 9 3 Thunderstorms and Rain and Fog/Mist FEW016 BKN035 OVC050 72 70     94%   73 29.85   0    
May 19 21:45 6 1.25 Thunderstorms and Rain and Fog/Mist FEW014 BKN048 OVC070 72 69     91%   73 29.85   0    
May 19 21:38 SE 11 2 Clear   75 70     84%   76 29.87   0    
May 19 21:17 7 10 Clear   77 70     79%   78 29.85        
May 19 20:53 E 8 10 Clear   77 71     82%   78 29.83 29.81      
May 19 19:53 E 7 10 Mostly Cloudy FEW044 BKN055 79 70     74%   82 29.83 29.8      
May 19 18:53 E 3 10 Clear CLR 82 71     69%   86 29.82 29.8      
May 19 17:53 3 10 Clear CLR 84 69     61%   88 29.82 29.8      
May 19 16:53 SE 7 10 Mostly Clear FEW100 86 69     57%   90 29.84 29.82      
May 19 14:53 3 10 Clear CLR 85 70     61%   89 29.88 29.85      
May 19 13:53 7 10 Mostly Clear FEW029 84 70     63%   88 29.9 29.88      
May 19 12:53 ESE 8 10 Clear CLR 82 70     67%   86 29.92 29.89      
May 19 11:53 ESE 8 10 Clear CLR 77 67     71%   78 29.94 29.91      
May 19 10:53 ESE 8 10 Mostly Clear FEW028 76 66     71%   77 29.95 29.93      
May 19 09:53 5 10 Mostly Clear FEW043 73 63     71%   73 29.96 29.94      
May 19 08:53 SE 5 10 Partly Cloudy FEW029 SCT036 68 63     84%     29.95 29.93      
May 19 07:53 Calm 10 Mostly Clear FEW080 66 63     90%     29.95 29.92      
May 19 06:53 Calm 10 Mostly Cloudy BKN035 63 62     97%     29.94 29.91     0
May 19 05:53 Calm 10 Clear CLR 62 61     96%     29.91 29.89      
May 19 04:53 Calm 10 Clear CLR 62 61     96%     29.89 29.87      
May 19 03:53 SE 5 10 Clear   63 61     93%     29.9 29.87   0  
May 19 02:53 NNW 10 10 Cloudy BKN065 OVC080 65 62     90%     29.97 29.95 0    
May 19 02:20   10 Cloudy OVC060 65 62     90%     29.98   0    
May 19 01:53   9 Thunderstorms and Rain FEW025 BKN050 OVC070 67 60     79%     29.98   0    
May 19 00:53 ESE 3 10 Mostly Cloudy BKN100 75 70     84%   76 29.87 29.84      
May 18 23:53 Calm 10 Mostly Clear FEW100 74 70     87%   75 29.87 29.85      
May 18 22:53 Calm 10 Partly Cloudy FEW070 SCT090 76 70     82%   77 29.87 29.85      
May 18 21:53 3 10 Mostly Cloudy BKN060 BKN075 79 70     74%   82 29.84 29.82      
May 18 20:53 ESE 3 10 Clear CLR 79 69     72%   80 29.81 29.79      
May 18 19:53 ESE 5 10 Mostly Clear FEW046 80 69     69%   83 29.8 29.78      
May 18 18:53 SE 5 10 Clear CLR 83 68     61%   86 29.8 29.78      
May 18 17:53 SSE 6 10 Mostly Clear FEW046 85 69     59%   89 29.81 29.78      
May 18 16:53 SE 7 10 Mostly Cloudy FEW042 SCT049 BKN075 84 68     59%   87 29.83 29.8      
May 18 15:53 6 10 Mostly Clear FEW043 86 69     57%   90 29.84 29.81      
May 18 14:53 7 10 Mostly Cloudy SCT033 BKN045 BKN070 84 69     61%   88 29.86 29.83      
May 18 13:53 S 7 10 Mostly Cloudy FEW027 SCT031 BKN040 83 70     65%   87 29.87 29.85      
May 18 12:53 7 10 Mostly Cloudy SCT021 SCT027 BKN060 79 70     74%   82 29.89 29.87      
May 18 12:24 5 10 Cloudy FEW019 OVC055 79 71     77%   82 29.9        
May 18 12:17 S 7 10 Cloudy SCT019 BKN026 OVC050 78 70     76%   79 29.9        
May 18 12:07 7 10 Cloudy SCT019 SCT028 OVC050 78 70     76%   79 29.9        
May 18 12:00 S 7 10 Cloudy SCT019 BKN028 OVC050 78 70     76%   79 29.9        
May 18 11:53 SSE 8 10 Cloudy FEW016 SCT021 OVC050 78 70     76%   79 29.9 29.88      
May 18 11:41 SSE 7 10 Cloudy SCT019 SCT027 OVC050 78 70     76%   79 29.9        
May 18 10:53 S 7 10 Cloudy BKN018 OVC055 77 70     79%   78 29.9 29.88      
May 18 10:41 SSE 7 10 Cloudy FEW018 BKN050 OVC060 77 70     79%   78 29.9        
May 18 09:53 S 8 10 Cloudy BKN019 OVC041 76 69     79%   77 29.89 29.87      
May 18 08:53 5 10 Cloudy BKN019 OVC025 75 69     82%   76 29.89 29.86      
May 18 07:53 Calm 10 Cloudy SCT021 BKN028 OVC037 74 69     85%   75 29.87 29.85      
May 18 07:42 Calm 10 Cloudy FEW021 BKN029 OVC037 74 69     85%   75 29.87        
May 18 06:53 Calm 10 Mostly Cloudy SCT037 BKN044 72 68     87%   73 29.85 29.83      
May 18 05:53 SSE 5 10 Mostly Clear FEW023 70 68     93%     29.83 29.81      
May 18 04:53 ENE 5 10 Clear CLR 70 68     93%     29.83 29.8      
May 18 03:53 Calm 10 Mostly Cloudy FEW027 BKN034 BKN046 71 68     90%   72 29.83 29.8      
May 18 03:00 Calm 10 Mostly Cloudy BKN030 BKN039 73 68     84%   74 29.83        
May 18 02:53 Calm 10 Mostly Cloudy BKN028 BKN035 BKN044 73 68     84%   74 29.83 29.8      
May 18 02:33 SSE 3 10 Mostly Cloudy BKN028 BKN037 71 68     90%   72 29.82        
May 18 01:53 Calm 10 Mostly Cloudy FEW034 BKN044 BKN060 71 68     90%   72 29.82 29.8      
May 18 00:53 Calm 10 Mostly Cloudy BKN037 BKN050 72 68     87%   73 29.82 29.8      
May 18 00:24 ESE 3 10 Clear   71 68     90%   72 29.82        
May 17 23:53 Calm 10 Clear   73 68     84%   74 29.82 29.8      
May 17 23:44 Calm 10 Cloudy BKN028 OVC045 73 68     84%   74 29.82        
May 17 22:53 SSE 5 10 Mostly Cloudy SCT026 BKN042 73 68     84%   74 29.8 29.78      
May 17 21:53 SSE 3 10 Mostly Clear FEW030 74 67     79%   75 29.8 29.77      
May 17 20:53 SSE 5 10 Clear CLR 74 68     82%   75 29.77 29.75      
May 17 19:53 S 7 10 Clear CLR 76 69     79%   77 29.75 29.72      
May 17 18:53 S 7 10 Clear CLR 79 68     69%   80 29.74 29.71     0
May 17 17:53 SSE 10 10 Mostly Clear FEW029 80 69     69%   83 29.74 29.71      
May 17 16:53 7 10 Mostly Clear FEW028 79 69     72%   80 29.75 29.72      
May 17 15:53 SSE 8 10 Mostly Cloudy FEW028 SCT034 BKN075 77 69     77%   78 29.75 29.73 0 0  
May 17 15:37 6 10 Mostly Cloudy SCT025 SCT033 BKN075 77 71     82%   78 29.75   0    
May 17 15:13 WSW 7 9 Light Rain SCT022 BKN027 OVC035 73 69     87%   74 29.76   0    
May 17 14:53 SE 3 10 Cloudy FEW031 BKN039 OVC070 74 68     82%   75 29.76 29.73      
May 17 13:53 SSE 5 10 Cloudy BKN040 OVC050 72 68     87%   73 29.77 29.74      
May 17 12:53 SSE 8 10 Cloudy OVC045 72 66     82%   73 29.77 29.75      
May 17 11:53 SSE 6 10 Cloudy OVC030 74 65     74%   74 29.78 29.76      
May 17 11:35 3 10 Cloudy BKN030 OVC037 74 65     74%   74 29.78        
May 17 10:53 S 8 10 Cloudy OVC027 74 64     71%   74 29.78 29.75      
May 17 10:27 6 10 Mostly Cloudy BKN028 73 64     73%   73 29.77        
May 17 09:53 SSE 8 10 Mostly Clear FEW120 73 64     73%   73 29.72 29.7      
May 17 08:53 S 8 10 Mostly Cloudy FEW028 SCT085 BKN120 72 63     73%   72 29.79 29.77      
May 17 08:51 S 8 10 Mostly Cloudy SCT028 BKN085 BKN120 72 63     73%   72 29.79        
May 17 08:29 S 3 10 Cloudy BKN027 OVC060 71 62     73%   71 29.82        
May 17 07:53 S 6 10 Mostly Cloudy BKN070 72 62     71%   72 29.82 29.8      
May 17 06:53 S 8 10 Clear CLR 71 61     70%   71 29.8 29.78      
May 17 05:53 SSW 7 10 Mostly Cloudy BKN055 72 60     66%   72 29.82 29.8      
May 17 04:53 SW 10 10 Cloudy BKN036 OVC046 72 60     66%   72 29.81        
May 17 03:53 5 10 Clear CLR 73 60     64%   73 29.72 29.69      
May 17 01:53 6 10 Mostly Cloudy BKN049 74 61     64%   74 29.74 29.72      
May 17 00:53 SSE 5 10 Clear CLR 73 61     66%   73 29.75 29.73      
May 16 23:53 SE 6 10 Clear CLR 75 61     62%   75 29.77 29.74      
May 16 22:53 5 10 Clear CLR 74 61     64%   74 29.79 29.76      
May 16 21:53 5 10 Clear CLR 76 61     60%   76 29.79 29.76      
May 16 20:53 ESE 5 10 Clear CLR 76 60     58%   76 29.77 29.75      
May 16 19:53   10 Clear CLR 79 60     52%   79 29.78 29.75      
May 16 18:53 SSE 8 10 Clear CLR 82 60     47%   82 29.79 29.76      
May 16 17:53 SSE 8 10 Clear CLR 84 59     43%   84 29.81 29.78      
May 16 16:53 S 10 10 Clear CLR 85 59     42%   85 29.82 29.8      
May 16 15:53 SSE 9 10 Clear CLR 85 58     40%   84 29.84 29.82      
May 16 14:53 7 10 Clear CLR 84 58     41%   83 29.87 29.84      
May 16 13:53 SSW 13 10 Clear CLR 83 56     40%   82 29.89 29.86      
May 16 12:53 S 13 10 Clear CLR 83 56     40%   82 29.91 29.89      
May 16 11:53 S 14 10 Clear CLR 82 55     40%   81 29.93 29.91      
May 16 10:53 S 9 10 Clear CLR 81 59     47%   81 29.94 29.92      
May 16 09:53 S 7 10 Clear CLR 76 61     60%   76 29.94 29.92      
May 16 08:53 SSE 3 10 Clear CLR 73 62     68%   73 29.95 29.92      
May 16 07:53 SE 3 10 Clear CLR 70 62     76%     29.94 29.92      
May 16 06:53 E 3 10 Mostly Cloudy BKN046 66 60     81%     29.93 29.9      
May 16 05:53 Calm 10 Clear CLR 65 60     84%     29.91 29.88      
May 16 04:53 3 10 Clear CLR 66 60     81%     29.9 29.88      
May 16 03:53 Calm 10 Clear CLR 66 59     78%     29.9 29.87      
May 16 02:53 Calm 10 Clear CLR 67 60     79%     29.89 29.87      
May 16 01:53 Calm 10 Clear CLR 66 60     81%     29.89 29.86      
May 16 00:53 SSE 3 10 Clear CLR 65 61     87%     29.9 29.88      
May 15 23:53 SE 3 10 Clear CLR 67 62     84%     29.9 29.88      
May 15 22:53 SE 3 10 Mostly Clear FEW049 69 62     78%     29.91 29.89      
May 15 21:53 Calm 10 Clear CLR 69 63     81%     29.91 29.89      
May 15 20:53 Calm 10 Clear CLR 71 62     73%   71 29.9 29.88      
May 15 19:53 Calm 10 Clear CLR 78 61     56%   78 29.9 29.88      
May 15 18:53 5 10 Clear   82 62     51%   83 29.89 29.87      
May 15 17:53 SSE 6 10 Partly Cloudy SCT055 84 61     46%   84 29.9 29.88      
May 15 16:53 S 8 10 Clear CLR 84 61     46%   84 29.9 29.88      
May 15 15:53 6 10 Clear CLR 85 60     43%   85 29.91 29.89      
May 15 14:53 S 6 10 Mostly Clear FEW050 83 61     48%   83 29.92 29.91      
May 15 13:53 5 10 Clear CLR 82 60     47%   82 29.95 29.93      
May 15 12:53 6 10 Clear CLR 81 60     49%   82 29.97 29.95      
May 15 11:53   10 Clear CLR 79 62     56%   79 29.98 29.96      
May 15 10:53 6 10 Clear CLR 75 61     62%   75 30 29.98      
May 15 09:53 5 10 Clear CLR 73 59     61%   73 30 29.98      
May 15 09:11 Calm 10 Mostly Clear FEW002 70 61     73%     29.99        
May 15 08:53 Calm 10 Clear CLR 69 61     75%     29.99 29.97      
May 15 07:53 Calm 10 Clear CLR 62 59     90%     29.97 29.95      
May 15 06:53 Calm 8 Clear CLR 56 55     97%     29.96 29.94      
May 15 05:53 Calm 9 Clear CLR 55 54     96%     29.94 29.93      
May 15 04:53 Calm 9 Clear CLR 56 55     97%     29.96 29.93      
May 15 03:53 Calm 10 Clear CLR 56 55     97%     29.95 29.93      
May 15 02:53 Calm 10 Clear CLR 57 56     96%     29.94 29.92      
May 15 01:53 Calm 10 Clear CLR 58 56     93%     29.95 29.93      
May 15 00:53 Calm 10 Clear CLR 59 57     93%     29.95 29.93      
May 14 23:53 Calm 10 Clear CLR 60 58     93%     29.94 29.92      
May 14 22:53 Calm 10 Clear CLR 62 59     90%     29.93 29.91      
May 14 21:53 Calm 10 Clear CLR 64 60     87%     29.92 29.9      
May 14 20:53 Calm 10 Clear CLR 67 61     81%     29.9 29.88      
May 14 19:53 Calm 10 Clear CLR 73 60     64%   73 29.9 29.88      
May 14 18:53 Calm 10 Clear CLR 79 58     49%   79 29.91 29.89      
May 14 17:53 Calm 10 Clear CLR 80 56     44%   80 29.91 29.89      
May 14 16:53 E 3 10 Clear CLR 80 56     44%   80 29.92 29.9      
May 14 15:53 Calm 10 Clear CLR 79 54     42%   79 29.94 29.92      
May 14 14:53 5 10 Clear CLR 78 55     45%   78 29.95 29.93      
May 14 13:53 Calm 10 Clear CLR 76 52     43%   75 29.98 29.96      
May 14 12:53 S 7 10 Clear CLR 75 54     48%   74 30 29.98      
May 14 11:53 S 6 10 Clear CLR 73 52     48%   72 30.01 29.99      
May 14 10:53 3 10 Clear CLR 73 52     48%   72 30.02 30      
May 14 09:53 Calm 10 Clear CLR 69 56     63%     30.03 30.01      
May 14 08:53 Calm 10 Clear CLR 64 57     78%     30.03 30.01      
May 14 07:53 Calm 10 Clear CLR 58 55     90%     30.03 30.01      
May 14 06:53 Calm 6 Fog/Mist CLR 51 51     100%     30.01 29.99      
May 14 05:53 Calm 8 Clear CLR 51 50     96%     30 29.98      
May 14 04:53 Calm 9 Clear CLR 51 50     96%     29.97 29.96      
May 14 03:53 Calm 9 Clear CLR 52 51     97%     29.95 29.93      
May 14 02:53 Calm 10 Clear CLR 53 51     93%     29.94 29.92      
May 14 01:53 Calm 10 Clear CLR 54 52     93%     29.94 29.92      
May 14 00:53 Calm 10 Clear CLR 55 53     93%     29.94 29.92      
May 13 23:53 Calm 10 Clear CLR 56 54     93%     29.94 29.92      
May 13 22:53 Calm 10 Clear CLR 58 55     90%     29.94 29.92      
May 13 21:53 Calm 10 Clear CLR 60 55     83%     29.93 29.91      
May 13 20:53 Calm 10 Clear CLR 62 56     80%     29.91 29.9      
May 13 19:53 Calm 10 Clear CLR 69 56     63%     29.91 29.89      
May 13 18:53 SE 5 10 Clear CLR 75 51     43%   74 29.91 29.89      
May 13 17:53   10 Clear CLR 77 51     40%   76 29.92 29.9